Simultaneous Nadir Overpasses (SNOs) Predictions

Prediction of SNOs between GOES-15 and NPP Satellite Orbit:

Table of predicted SNOs for the next 14.0 days since TLE Epoch: 12/17/2023
Index Date Time (GOES-15) GOES-15 Lat,Lon NPP Lat,Lon Distance(km) Time Diff (sec)
1 12/19/2023 09:21:26 0.03, 61.29 -0.12, 60.69 68.39 80
2 12/20/2023 09:05:20 0.02, 61.29 0.90, 65.23 448.30 80
3 12/21/2023 21:27:07 -0.04, 61.23 0.26, 59.96 144.49 80
4 12/22/2023 21:05:41 -0.02, 61.24 -0.77, 64.49 371.26 80
5 12/24/2023 09:27:35 0.04, 61.34 -0.45, 59.20 243.87 80
6 12/25/2023 09:11:30 0.03, 61.35 0.58, 63.73 272.26 80
7 12/26/2023 21:33:16 -0.04, 61.28 0.57, 58.47 320.10 80
8 12/27/2023 21:11:50 -0.03, 61.30 -0.40, 63.01 195.12 80
9 12/29/2023 09:33:44 0.04, 61.41 -0.80, 57.72 421.84 80
10 12/30/2023 09:17:39 0.03, 61.43 0.23, 62.25 93.93 80
